Weather History for Rawlins, WY

Change the Weather History Date:

Friday, December 7, 2012

  Actual Average Record
Temperature  
Mean Temperature 30 °F 22 °F  
Max Temperature 34 °F 31 °F 50 °F (1965)
Min Temperature 25 °F 13 °F -26 °F (2005)
Degree Days  
Heating Degree Days 35 43  
Month to date heating degree days 197 297  
Since 1 July heating degree days 1867 2403  
Cooling Degree Days 0 0  
Month to date cooling degree days 0 0  
Year to date cooling degree days 419 186  
Moisture  
Dew Point 16 °F    
Average Humidity 57    
Maximum Humidity 75    
Minimum Humidity 38    
Precipitation  
Precipitation 0.00 in 0.01 in 0.17 in (1974)
Month to date precipitation 0.02 0.09  
Year to date precipitation 4.61 8.91  
Sea Level Pressure  
Sea Level Pressure 29.89 in    
Wind  
Wind Speed 24 mph (WSW)    
Max Wind Speed 39 mph    
Max Gust Speed 47 mph    
Visibility 10 miles    
Events      
T = Trace of Precipitation, MM = Missing Value Source: NWS Daily Summary

Daily Weather History Graph

Daily Weather History Graph

Search for Another Location

Airport:

Trip Planner

Search our weather history database for the weather conditions in past years. The results will help you decide how hot, cold, wet, or windy it might be!

Date:

Astronomy

Dec. 07, 2012 Rise Set
Actual Time 7:23 AM MST 4:37 PM MST
Civil Twilight 6:51 AM MST 5:09 PM MST
Nautical Twilight 6:16 AM MST 5:44 PM MST
Astronomical Twilight 5:43 AM MST 6:17 PM MST
Moon 12:40 AM MST (12/7) 12:40 PM MST (12/7)
Length of Visible Light 10h 17m
Length of Day
9h 14m
Last Quarter, 38% of the Moon is Illuminated
Dec 7
Last Quarter
Dec 13
New
Dec 19
First Quarter
Dec 28
Full
Jan 4
Last Quarter

Hourly Weather History & Observations

Time (MST) Temp. Windchill Dew Point Humidity Pressure Visibility Wind Dir Wind Speed Gust Speed Precip Events Conditions
12:53 AM 33.1 °F 19.8 °F 19.9 °F 59% 29.78 in 10.0 mi WSW 26.5 mph 35.7 mph 0.00 in   Mostly Cloudy
1:53 AM 34.0 °F 20.3 °F 23.0 °F 64% 29.77 in 10.0 mi WSW 29.9 mph 38.0 mph N/A   Clear
2:53 AM 34.0 °F 21.0 °F 23.0 °F 64% 29.79 in 10.0 mi West 26.5 mph 38.0 mph N/A   Clear
3:53 AM 33.1 °F 18.9 °F 21.9 °F 64% 29.80 in 10.0 mi West 31.1 mph 39.1 mph 0.00 in   Clear
4:53 AM 30.9 °F 16.7 °F 21.9 °F 69% 29.84 in 10.0 mi West 27.6 mph 35.7 mph N/A   Partly Cloudy
5:53 AM 28.9 °F 14.8 °F 21.0 °F 72% 29.88 in 10.0 mi WSW 24.2 mph 31.1 mph N/A   Clear
6:53 AM 27.0 °F 12.2 °F 19.0 °F 72% 29.90 in 10.0 mi WSW 24.2 mph 33.4 mph N/A   Clear
7:53 AM 26.1 °F 10.4 °F 18.0 °F 71% 29.92 in 10.0 mi WSW 26.5 mph 32.2 mph N/A   Clear
8:53 AM 28.0 °F 13.9 °F 18.0 °F 66% 29.95 in 10.0 mi West 23.0 mph 28.8 mph N/A   Clear
9:53 AM 30.0 °F 16.6 °F 18.0 °F 61% 29.94 in 10.0 mi West 23.0 mph 28.8 mph N/A   Clear
10:53 AM 30.9 °F 17.5 °F 17.1 °F 57% 29.94 in 10.0 mi West 24.2 mph 33.4 mph N/A   Partly Cloudy
11:53 AM 30.9 °F 17.2 °F 15.1 °F 52% 29.92 in 10.0 mi West 25.3 mph 31.1 mph N/A   Mostly Cloudy
12:53 PM 32.0 °F 18.9 °F 14.0 °F 48% 29.91 in 10.0 mi West 24.2 mph 31.1 mph 0.00 in   Mostly Cloudy
1:53 PM 33.1 °F 20.1 °F 10.0 °F 38% 29.88 in 10.0 mi West 25.3 mph 32.2 mph N/A   Mostly Cloudy
2:53 PM 32.0 °F 18.9 °F 10.0 °F 40% 29.90 in 10.0 mi West 24.2 mph 29.9 mph 0.00 in   Overcast
3:53 PM 32.0 °F 21.6 °F 10.0 °F 40% 29.91 in 10.0 mi West 15.0 mph - 0.00 in   Overcast
4:53 PM 28.9 °F 16.9 °F 8.1 °F 41% 29.94 in 10.0 mi West 17.3 mph 26.5 mph 0.00 in   Scattered Clouds
6:53 PM 26.1 °F 13.1 °F 10.0 °F 51% 29.98 in 10.0 mi WSW 17.3 mph - N/A   Mostly Cloudy
7:53 PM 26.1 °F 12.7 °F 12.0 °F 55% 29.98 in 10.0 mi WSW 18.4 mph 24.2 mph N/A   Clear
8:53 PM 26.1 °F 12.3 °F 10.9 °F 53% 29.94 in 10.0 mi West 19.6 mph 26.5 mph N/A   Clear
9:53 PM 26.1 °F 11.0 °F 14.0 °F 60% 29.90 in 10.0 mi WSW 24.2 mph 31.1 mph N/A   Clear
10:53 PM 27.0 °F 11.0 °F 12.9 °F 56% 29.87 in 10.0 mi WSW 28.8 mph 44.9 mph 0.00 in   Clear
11:53 PM 26.1 °F 11.3 °F 12.9 °F 58% 29.85 in 10.0 mi WSW 23.0 mph 31.1 mph 0.00 in   Clear